Regional Weather Roundup
Issued by NWS Cleveland, OH

Home | Current Version | Previous Version | Text Only | Print | Product List | Glossary Off
Versions: 1 2 3 4 5 6 7 8 9 10 11 12 13 14 15 16 17 18 19 20 21 22 23 24 25 26 27 28 29 30 31 32 33 34 35 36 37 38 39 40 41 42 43 44 45 46 47 48 49 50

000
ASUS41 KCLE 071102
RWRCLE
OHIO REGIONAL WEATHER ROUNDUP
NATIONAL WEATHER SERVICE CLEVELAND, OH
600 AM EST WED DEC 07 2016

NOTE: "FAIR" INDICATES FEW OR NO CLOUDS BELOW 12,000 FEET WITH NO
SIGNIFICANT WEATHER AND/OR OBSTRUCTIONS TO VISIBILITY.

OHZ001>008-015>018-024>027-034-035-043-044-071200-
   NORTHWEST OHIO

CITY           SKY/WX    TMP DP  RH WIND       PRES   REMARKS
DEFIANCE       PTCLDY    28  20  71 SW7       30.04R WCI  21
FINDLAY        CLEAR     28  21  75 W13       30.03R WCI  17
TOLEDO EXPRESS MOCLDY    28  23  81 W13       30.01R WCI  17
TOLEDO EXEC    CLEAR     29  24  82 SW9       30.02R WCI  20
LIMA           CLEAR     27  23  85 W10       30.03F WCI  17
$$

OHZ009>014-019>023-028>033-038-089-071200-
   NORTHEAST OHIO

CITY           SKY/WX    TMP DP  RH WIND       PRES   REMARKS
CLE-HOPKINS    CLOUDY    34  26  72 SW14      30.04R WCI  25
CLE-LAKEFRONT  CLOUDY    34  27  75 SW16      30.01R WCI  24
CUY CO. ARPT   NOT AVBL
LORAIN-ELYRIA  MOCLDY    30  23  75 W12       30.03R WCI  20
ASHTABULA      CLOUDY    36  30  79 W10       29.98R
AKRON-CANTON   PTCLDY    32  25  75 W8        30.01R WCI  25
WOOSTER        PTCLDY    30  25  81 W13       30.03R WCI  20
MANSFIELD      MOCLDY    28  24  85 W10       30.02R WCI  19
YOUNGSTOWN     MOCLDY    34  26  72 W7        29.98R WCI  28
$$

OHZ042-051>053-060>062-070>072-077>081-071200-
  SOUTHWEST OHIO

CITY           SKY/WX    TMP DP  RH WIND       PRES   REMARKS
CINC-COVINGTON MOCLDY    31  24  75 NW8       30.10S WCI  23
CINC-LUNKEN    PTCLDY    33  24  69 NW7       30.14R WCI  27
HAMILTON       PTCLDY    26  22  84 SW3       30.13R
DAYTON         PTCLDY    26  20  77 NW7       30.07S WCI  18
WRIGHT-PAT AFB PTCLDY    28  22  78 W3        30.08R
DAYTON GENERAL PTCLDY    29  22  75 CALM      30.08R
WILMINGTON     PTCLDY    29  25  85 W8        30.09R WCI  21
$$

OHZ036-037-039>041-045>050-054>059-063>069-073>076-082>088-071200-
  CENTRAL AND SOUTHEAST OHIO

CITY           SKY/WX    TMP DP  RH WIND       PRES   REMARKS
COLUMBUS       PTCLDY    30  27  88 W7        30.08R WCI  23
OSU AIRPORT    CLEAR     28  25  88 W3        30.07R
BOLTON FIELD   NOT AVBL
RICKENBACK AFB NOT AVBL
NEWARK         PTCLDY    31  26  82 SW5       30.07R WCI  26
MARION         CLEAR     29  23  78 W9        30.05R WCI  20
LANCASTER      PTCLDY    29  26  89 W6        30.10R WCI  23
ZANESVILLE     PTCLDY    31  27  85 SW3       30.07R
NEW PHILLY     PTCLDY    33  28  81 W8        30.05R WCI  26
$$



USA.gov is the U.S. government's official web portal to all federal, state and local government web resources and services.